User: anonymous   Login
Location: Unspecified
(0.0000°N, 0.0000°E)
Time: 15:58:50
(UTC+01:00)
Language:

GPS 2-12 Rocket1 - Orbit

View from above orbital plane
View from above orbital plane
View from above satellite
View from above satellite

Ground track
Ground track

The orbit data is extracted from the following two-line orbital elements,

1 21891U 92009B   17015.84685891  .00000530  00000-0  15036-4 0  9991
2 21891  19.9954 200.8280 0047345   0.0570 359.9850 14.82801996343620
Epoch (UTC): 15 January 2017 20:19:28
Eccentricity: 0.0047345
inclination: 19.9954°
perigee height: 587 km
apogee height: 653 km
right ascension of ascending node: 200.8280°
argument of perigee: 0.0570°
revolutions per day: 14.82801996
mean anomaly at epoch: 359.9850°
orbit number at epoch: 34362

The dashed part of the orbit path shows where the satellite is in the earth's shadow,  

DLR